Location: Boston
(42.3580°N, 71.0600°W)
Time: 05:38:45
(UTC-04:00)

ISS - Pass Details

Date: 12 October 2017
Orbit: 400 x 408 km, 51.6° (Epoch: 24 October)

Event Time Altitude Azimuth Distance (km) Brightness Sun altitude
Rises 19:34:33 0° 304° (WNW) 2,327 1.1 -17.0°
Reaches altitude 10° 19:36:38 10° 304° (WNW) 1,466 -0.1 -17.4°
Maximum altitude 19:39:55 87° 214° (SW) 411 -3.9 -18.0°
Enters shadow 19:40:27 59° 130° (SE) 471 -3.8 -18.1°
